Location: Presov
(49.0000°N, 21.2500°E)
Time: 06:21:44
(UTC+02:00)

ISS - Pass Details

Date: 01 April 2019
Orbit: 408 x 410 km, 51.6° (Epoch: 23 April)

Event Time Altitude Azimuth Distance (km) Brightness Sun altitude
Rises 20:10:38 0° 286° (WNW) 2,339 2.2 -11.2°
Reaches altitude 10° 20:12:44 10° 290° (WNW) 1,476 0.6 -11.5°
Maximum altitude 20:16:01 61° 12° (NNE) 470 -3.5 -12.0°
Enters shadow 20:18:09 20° 88° (E) 1,023 -2.3 -12.3°
